Find Local Weather

World > North America > United States > Nevada

Salt Wells, Nevada Regional Weather

Lat: 39.38N, Lon: 118.58W
Wx Zone: NVZ004
Feedback

Salt Wells, NV Regional Weather

Expires:201905260100;;461009
ASUS45 KREV 260010
RWRNV 
NEVADA REGIONAL WEATHER ROUNDUP
NATIONAL WEATHER SERVICE RENO NV
500 PM PDT SAT MAY 25 2019

NOTE: "FAIR" INDICATES FEW OR NO CLOUDS BELOW 12,000 FEET WITH NO
SIGNIFICANT WEATHER AND/OR OBSTRUCTIONS TO VISIBILITY.


NVZ001-003-004-260100-
WESTERN NEVADA
  
CITY           SKY/WX    TMP DP  RH WIND       PRES   REMARKS
RENO           PTSUNNY   61  34  36 W15G23    29.79F                  
6HR MIN TEMP:  58; 6HR MAX TEMP:  65; 6HR PCP: TRACE;                

CARSON CITY    FAIR      63  32  31 W15       29.79F                  
MINDEN         FAIR      63  32  31 W5        29.80F                  
PYRAMID LAKE     N/A     59 N/A N/A N5          N/A                   
FALLON         PTSUNNY   61  39  44 SE6       29.78F                  
6HR MIN TEMP:  48; 6HR MAX TEMP:  66; 6HR PCP:  0.12;                

LOVELOCK       MOSUNNY   63  36  36 S14       29.78F                  
6HR MIN TEMP:  58; 6HR MAX TEMP:  66;                                

HAWTHORNE      MOSUNNY   63  37  39 NW15G21   29.79S                  
$$


SKY/WX - Weather  TMP - Temperature  DP - Dew Point  RH - Relative Humidity
WIND - Wind Direction/Speed PRES - Barometric Pressure VSB - Visibility
WCI - Wind Chill Index E13G22 Wind - East Wind 13 mph/Gusts of 22 mph